Regional Weather Roundup
Issued by NWS

Home | Current Version | Previous Version | Text Only | Print | Product List | Glossary Off
Versions: 1 2 3 4 5 6 7 8 9 10 11 12 13 14 15 16 17 18 19 20 21 22 23 24 25 26 27 28 29 30 31 32 33 34 35 36 37 38 39 40 41 42 43 44 45 46 47 48 49 50

000
ASUS43 KDTX 271810
RWRMI
MICHIGAN HOURLY REGIONAL WEATHER ROUNDUP
NATIONAL WEATHER SERVICE DETROIT/PONTIAC MI
200 PM EDT FRI MAY 27 2016

NOTE: "FAIR" INDICATES FEW OR NO CLOUDS BELOW 12,000 FEET WITH NO
SIGNIFICANT WEATHER AND/OR OBSTRUCTION TO VISIBILITY.

MIZ047>049-052>055-059>063-066>070-074>076-081>083-271900-
SOUTHEAST LOWER MICHIGAN

CITY           SKY/WX    TMP DP  RH WIND       PRES   REMARKS
ADRIAN         CLOUDY    80  63  55 VRB3      30.00S
6HR MIN TEMP:  66; 6HR MAX TEMP:  81;

ALMA           MOSUNNY   80  66  62 S5G21     29.96F
ANN ARBOR      CLOUDY    79  63  57 S6        30.00S
BAD AXE        MOSUNNY   80  65  59 S7        29.99F
CARO           MOSUNNY   83  61  46 S3        29.97F
DETROIT CITY   CLOUDY    82  62  50 S10       29.99F
6HR MIN TEMP:  71; 6HR MAX TEMP:  83;

DETROIT        CLOUDY    81  64  56 S6        30.00F
6HR MIN TEMP:  70; 6HR MAX TEMP:  82;

FLINT          PTSUNNY   86  63  45 SW9       29.98S
6HR MIN TEMP:  71; 6HR MAX TEMP:  87;

GROSSE ILE     CLOUDY    75  66  73 SE7       30.00S
HILLSDALE      CLOUDY    77  59  53 S6        30.01S
6HR MIN TEMP:  66; 6HR MAX TEMP:  77;

HOWELL         CLOUDY    80  63  54 S9        29.99F

CITY           SKY/WX    TMP DP  RH WIND       PRES   REMARKS
JACKSON        PTSUNNY   78  64  61 S10       29.99S
6HR MIN TEMP:  67; 6HR MAX TEMP:  79;

LAMBERTVILLE   CLOUDY    83  63  51 SW5       30.00S
6HR MIN TEMP:  70; 6HR MAX TEMP:  84;

LANSING        CLOUDY    82  64  54 SE8       29.97F
6HR MIN TEMP:  68; 6HR MAX TEMP:  83;

LAPEER         FAIR      83  57  41 CALM      29.99S
6HR MIN TEMP:  69; 6HR MAX TEMP:  85;

MASON          PTSUNNY   81  64  56 SE8G16    29.98S
MONROE         CLOUDY    80  66  63 SE6       29.99S
6HR MIN TEMP:  68; 6HR MAX TEMP:  81;

MT. CLEMENS    PTSUNNY   82  68  62 S14       29.98F
6HR MIN TEMP:  72; 6HR MAX TEMP:  82;

PONTIAC        CLOUDY    82  62  50 SW9       29.99S
6HR MIN TEMP:  69; 6HR MAX TEMP:  83;

PORT HOPE        N/A     59  57  93 E5        29.99F
6HR MIN TEMP:  53; 6HR MAX TEMP:  68;

PORT HURON     CLOUDY    81  64  57 S7        29.99S
TRI CITIES     MOSUNNY   85  62  46 SE10G18   29.96F
6HR MIN TEMP:  70; 6HR MAX TEMP:  86;

MIDLAND        FAIR      83  63  51 S6        29.95F
6HR MIN TEMP:  66; 6HR MAX TEMP:  83;

TROY           MOSUNNY   85  61  44 SW7G16    30.01S
SAGINAW HB     SUNNY     84  59  42 SE6       29.96F
$$
MIZ043>046-050>051-056>058-064>065-071>073-077>080-271900-
SOUTHWEST LOWER MICHIGAN

CITY           SKY/WX    TMP DP  RH WIND       PRES   REMARKS
BATTLE CREEK   CLOUDY    78  64  61 S12       29.98S
6HR MIN TEMP:  66; 6HR MAX TEMP:  79;

BENTON HARBOR  CLOUDY    78  65  63 S8        29.94F
6HR MIN TEMP:  68; 6HR MAX TEMP:  78;

BIG RAPIDS     MOSUNNY   81  67  63 SE15G21   29.93F
6HR MIN TEMP:  61; 6HR MAX TEMP:  81;

COLDWATER      CLOUDY    76  63  64 S6        29.99S
6HR MIN TEMP:  67; 6HR MAX TEMP:  78;

FREMONT        FAIR      78  67  69 SW10      29.93S
HOLLAND        LGT RAIN  73  65  75 W9        29.95R
6HR MIN TEMP:  67; 6HR MAX TEMP:  80; 6HR PCP: TRACE;

GRAND RAPIDS   LGT RAIN  82  66  58 S18G26    29.95S
6HR MIN TEMP:  69; 6HR MAX TEMP:  85; 6HR PCP: TRACE;

IONIA          FAIR      83  60  45 S15       29.94F
6HR MIN TEMP:  66; 6HR MAX TEMP:  83;

KALAMAZOO      CLOUDY    79  63  57 S6        29.97S
6HR MIN TEMP:  68; 6HR MAX TEMP:  80;

LUDINGTON      CLOUDY    74  66  74 SW12G17   29.92F
6HR MIN TEMP:  64; 6HR MAX TEMP:  77;

MARSHALL       PTSUNNY   80  65  60 S7        29.98S
6HR MIN TEMP:  67; 6HR MAX TEMP:  80;

MOUNT PLEASANT CLOUDY    83  66  57 S9        29.95F
6HR MIN TEMP:  64; 6HR MAX TEMP:  83;

MUSKEGON       CLOUDY    71  62  73 SW12      29.95S
6HR MIN TEMP:  70; 6HR MAX TEMP:  78;

SOUTH HAVEN    CLOUDY    78  66  66 S9        29.96R
$$
MIZ016>042-271900-
NORTHERN LOWER MICHIGAN

CITY           SKY/WX    TMP DP  RH WIND       PRES   REMARKS
ALPENA         CLOUDY    74  60  61 E13       29.98S
6HR MIN TEMP:  61; 6HR MAX TEMP:  79;

BEAVER ISLAND  CLOUDY    75  61  61 E7        29.94S
6HR MIN TEMP:  60; 6HR MAX TEMP:  76;

BELLAIRE       CLOUDY    84  56  39 SE5       29.91F
6HR MIN TEMP:  60; 6HR MAX TEMP:  84;

CADILLAC       CLOUDY    80  64  57 SE13      29.95F
CHARLEVOIX     CLOUDY    73  63  69 NW3       29.95F
6HR MIN TEMP:  58; 6HR MAX TEMP:  76;

FRANKFORT      CLOUDY    69  63  81 W6        29.92R
GAYLORD        CLOUDY    81  57  43 S8        29.96F
6HR MIN TEMP:  62; 6HR MAX TEMP:  81;

GRAYLING       MOSUNNY   83  56  39 S8        29.96F
6HR MIN TEMP:  58; 6HR MAX TEMP:  84;

HARBOR SPRINGS MOSUNNY   81  59  47 CALM      29.93F
HOUGHTON LAKE  CLOUDY    82  59  45 S9        29.96F
6HR MIN TEMP:  61; 6HR MAX TEMP:  82;

MANISTEE       CLOUDY    81  66  61 SW13      29.91F
OSCODA         MOSUNNY   71  58  64 SE7       29.99F
6HR MIN TEMP:  60; 6HR MAX TEMP:  71;

PELLSTON       CLOUDY    80  60  50 VRB3      29.94S
6HR MIN TEMP:  57; 6HR MAX TEMP:  81;

ROGERS CITY    MOSUNNY   73  61  65 NE9       29.97F
TRAVERSE CITY  CLOUDY    81  62  52 NE7       29.88F
6HR MIN TEMP:  62; 6HR MAX TEMP:  81;

$$
MIZ007>008-015-271900-
EASTERN UPPER MICHIGAN

CITY           SKY/WX    TMP DP  RH WIND       PRES   REMARKS
KINROSS          N/A     75  63  64 SE10      29.95F
6HR MIN TEMP:  55; 6HR MAX TEMP:  75;

MACKINAC ISLAN CLOUDY    62  56  81 E9        29.95S
6HR MIN TEMP:  57; 6HR MAX TEMP:  66;

NEWBERRY       CLOUDY    74  61  62 S6        29.93F
6HR MIN TEMP:  55; 6HR MAX TEMP:  76;

S. S. MARIE    MOSUNNY   75  64  68 VRB5      29.94F
6HR MIN TEMP:  55; 6HR MAX TEMP:  75;

MUNISING         N/A     53  50  89 N5        29.93R
6HR MIN TEMP:  52; 6HR MAX TEMP:  72;

$$
MIZ004>006-011>014-085-271900-
CENTRAL UPPER MICHIGAN

CITY           SKY/WX    TMP DP  RH WIND       PRES   REMARKS
MANISTIQUE     CLOUDY    65  62  90 SE3       29.94S
6HR MIN TEMP:  53; 6HR MAX TEMP:  65;

ESCANABA         N/A     63  55  77 SE6       29.91F
6HR MIN TEMP:  54; 6HR MAX TEMP:  66;

MENOMINEE      CLOUDY    61  57  88 E7        29.92R
6HR MIN TEMP:  59; 6HR MAX TEMP:  68; 6HR PCP: TRACE;

SAWYER-GWINN   SUNNY     72  59  64 E3        29.93S
$$
MIZ001>003-009>011-084-271900-
WESTERN UPPER MICHIGAN

CITY           SKY/WX    TMP DP  RH WIND       PRES   REMARKS
IRON MOUNTAIN  CLOUDY    73  62  68 E8        29.89F
6HR MIN TEMP:  59; 6HR MAX TEMP:  73;

HOUGHTON       CLOUDY    64  59  83 E3        29.91S
6HR MIN TEMP:  53; 6HR MAX TEMP:  66;

COPPER HARBOR    N/A     45  44  97 CALM      29.92F
6HR MIN TEMP:  45; 6HR MAX TEMP:  50;

IRONWOOD       CLOUDY    64  61  88 E7        29.86S
6HR MIN TEMP:  55; 6HR MAX TEMP:  66;

$$

ABBREVIATIONS USED IN REMARKS
   TC - TEMPERATURE IN CELSIUS
  WCI - WIND CHILL INDEX
   HX - HEAT INDEX
  VSB - VISIBILITY





USA.gov is the U.S. government's official web portal to all federal, state and local government web resources and services.